Aéroport int. de Vancouver, Colombie-Britannique

Conditions des dernières 24 heures

Date / Heure
(HNP)
Conditions Temp
(°F)
Humidité
(%)
Point de rosée
(°F)
Vent
(mph)
Pression (pouces) Visibilité
(miles)
27 février 2015
17:00 Généralement ensoleillé 47 88 44 NO 9 29.9 30
16:00 Partiellement nuageux 49   85 44 ONO 10 29.9 30
15:00 Partiellement nuageux 46 88 43 NO 15 29.9 30
14:00 Généralement nuageux 47 86 43 ONO 15 29.9 30
13:00 Généralement nuageux 48 84 44 ONO 17 29.9 30
12:00 Généralement nuageux 47 87 43 ONO 18 29.9 30
11:00 Généralement nuageux 46 90 44 ONO 13 rafale 20 29.8 30
10:00 Généralement nuageux 47 90 44 ONO 18 29.8 30
9:00 Généralement nuageux 46 94 44 ONO 12 29.8 30
8:00 Généralement nuageux 45 95 43 ONO 13 29.8 30
7:00 Généralement nuageux 42   94 41 NO 9 29.8 30
6:00 Généralement nuageux 42   97 41 O 6 29.8 15
5:00 Pluie faible 43 96 42 calme 29.8 15
4:00 Pluie faible 44 95 42 S 2 29.8 15
3:00 Pluie faible 44 95 43 NNO 7 29.8 15
2:00 Pluie faible 44 96 42 NO 6 29.8 15
1:00 Pluie faible 44 96 43 NNO 3 29.8 15
0:00 Pluie faible 44 95 42 NO 4 29.9 15
26 février 2015
23:00 Pluie faible 44 94 43 NO 6 29.9 15
22:00 Pluie faible 45 94 43 NNO 5 29.9 15
21:00 Pluie faible 46 88 43 E 3 29.9 15
20:00 Pluie faible 47 87 43 ENE 4 29.9 15
19:00 Pluie faible 47 84 43 ENE 6 29.9 15
18:00 Généralement nuageux 48 83 43 E 6 30.0 15
17:00 Généralement nuageux 48 83 43 ESE 7 30.0 15
N.D. non disponible
↑ température la plus haute
↓ température la plus basse

Si vous désirez plus de données historiques sur les conditions météo, s.v.p. visitez Données climatologiques en ligne.

Ce que nous faisons

Date de modification :